This is the latest recevied weather packets stored in our database for station/object AI5YA-13. If no packets are shown the sender has not sent any weather packets the latest 10 day(s).
| Time | Temp. | Humidity | Pressure | Rain* | Wind** | Luminosity | Snow |
|---|---|---|---|---|---|---|---|
| 1777632849 | 12.22° C | 93% | 1014.4 hPa | 6.1 mm | - | 0 W/m² | - |
| 1777632544 | 12.22° C | 93% | 1014.3 hPa | 6.1 mm | - | 0 W/m² | - |
| 1777632242 | 12.22° C | 93% | 1014.7 hPa | 8.89 mm | - | 0 W/m² | - |
| 1777631939 | 12.22° C | 93% | 1014.5 hPa | 10.67 mm | - | 0 W/m² | - |
| 1777631637 | 12.22° C | 93% | 1014.4 hPa | 10.16 mm | - | 0 W/m² | - |
| 1777631334 | 12.22° C | 93% | 1014.8 hPa | 7.11 mm | - | 0 W/m² | - |
| 1777631031 | 12.22° C | 93% | 1015.1 hPa | 4.83 mm | - | 0 W/m² | - |
| 1777630727 | 12.22° C | 93% | 1014.8 hPa | 4.83 mm | - | 0 W/m² | - |
| 1777630424 | 12.22° C | 93% | 1014.6 hPa | 3.05 mm | - | 0 W/m² | - |
| 1777630122 | 12.22° C | 93% | 1015 hPa | 3.05 mm | - | 0 W/m² | - |
| 1777629819 | 12.22° C | 93% | 1015 hPa | 3.05 mm | - | 0 W/m² | - |
| 1777629516 | 12.22° C | 93% | 1014.7 hPa | 1.78 mm | - | 0 W/m² | - |
| 1777629212 | 12.22° C | 93% | 1014.4 hPa | 1.27 mm | - | 0 W/m² | - |
| 1777628908 | 12.22° C | 93% | 1014.6 hPa | 3.05 mm | - | 0 W/m² | - |
| 1777628605 | 12.78° C | 93% | 1014.6 hPa | 3.05 mm | - | 0 W/m² | - |
| 1777628301 | 12.78° C | 93% | 1014.7 hPa | 3.05 mm | - | 0 W/m² | - |
| 1777627998 | 12.78° C | 93% | 1014.6 hPa | 3.05 mm | - | 0 W/m² | - |
| 1777627696 | 12.78° C | 93% | 1014.5 hPa | 4.32 mm | - | 0 W/m² | - |
| 1777627395 | 12.78° C | 93% | 1014.4 hPa | 3.05 mm | - | 0 W/m² | - |
| 1777627093 | 12.78° C | 93% | 1014.6 hPa | 1.27 mm | - | 0 W/m² | - |
| 1777626789 | 12.78° C | 93% | 1014.7 hPa | 1.78 mm | - | 0 W/m² | - |
| 1777626484 | 12.78° C | 93% | 1014.7 hPa | 1.78 mm | - | 0 W/m² | - |
| 1777626179 | 12.78° C | 93% | 1014.5 hPa | 0 mm | - | 0 W/m² | - |
| 1777625878 | 12.78° C | 93% | 1014.6 hPa | 0 mm | - | 0 W/m² | - |
| 1777625574 | 12.78° C | 93% | 1014.8 hPa | 0 mm | - | 0 W/m² | - |
* Rain latest hour (hover to see other rain measurements)
** Current wind speed in m/s (hover to see current wind gust speed)